| time (UTC) | temp F | wind direction | speed MPH | gust MPH | rain 1hr in | rain 24hr in | rain mn in | humidity % | barometer mb |
| 20260903100514 | 72 | 59 | 0.0 | 3.0 | 0.27 | 0.94 | 0.92 | 94 | 1017.3 |
| 20260903100013 | 72 | 50 | 0.0 | 5.0 | 0.26 | 0.93 | 0.91 | 94 | 1017.3 |
| 20260903095517 | 72 | 111 | 1.0 | 5.0 | 0.23 | 0.90 | 0.88 | 95 | 1017.6 |
| 20260903095013 | 72 | 73 | 0.0 | 5.0 | 0.22 | 0.89 | 0.87 | 95 | 1017.5 |
| 20260903094513 | 72 | 49 | 0.0 | 2.0 | 0.18 | 0.85 | 0.83 | 95 | 1016.8 |
| 20260903094013 | 72 | 53 | 0.0 | 1.0 | 0.06 | 0.73 | 0.71 | 95 | 1016.7 |
| 20260903093513 | 72 | 215 | 0.0 | 2.0 | 0.03 | 0.70 | 0.68 | 95 | 1016.7 |
| 20260903093013 | 72 | 215 | 0.0 | 1.0 | 0.03 | 0.70 | 0.68 | 95 | 1016.7 |
| 20260903092512 | 72 | 215 | 0.0 | 2.0 | 0.03 | 0.70 | 0.68 | 95 | 1016.5 |
| 20260903092013 | 72 | 215 | 0.0 | 2.0 | 0.03 | 0.70 | 0.68 | 95 | 1016.5 |
| 20260903091513 | 72 | 118 | 0.0 | 2.0 | 0.00 | 0.67 | 0.65 | 95 | 1016.4 |
| 20260903091011 | 72 | 119 | 0.0 | 1.0 | 0.00 | 0.67 | 0.65 | 94 | 1016.5 |
| 20260903090512 | 72 | 118 | 0.0 | 1.0 | 0.00 | 0.67 | 0.65 | 94 | 1016.3 |
| 20260903090011 | 72 | 118 | 0.0 | 2.0 | 0.03 | 0.67 | 0.65 | 94 | 1016.4 |
| 20260903085511 | 72 | 118 | 1.0 | 2.0 | 0.04 | 0.67 | 0.65 | 94 | 1016.2 |
| 20260903085010 | 72 | 118 | 0.0 | 1.0 | 0.04 | 0.67 | 0.65 | 94 | 1016.1 |
| 20260903084524 | 72 | 118 | 0.0 | 1.0 | 0.04 | 0.67 | 0.65 | 94 | 1016.2 |
| 20260903084010 | 72 | 118 | 0.0 | 1.0 | 0.06 | 0.67 | 0.65 | 94 | 1016.3 |
| 20260903083512 | 72 | 118 | 0.0 | 1.0 | 0.10 | 0.67 | 0.65 | 94 | 1016.3 |
| 20260903083018 | 72 | 118 | 0.0 | 1.0 | 0.12 | 0.67 | 0.65 | 94 | 1016.4 |
| 20260903082511 | 72 | 119 | 0.0 | 2.0 | 0.14 | 0.67 | 0.65 | 94 | 1016.4 |
| 20260903082009 | 72 | 118 | 0.0 | 2.0 | 0.14 | 0.67 | 0.65 | 94 | 1016.4 |
| 20260903081509 | 72 | 196 | 0.0 | 2.0 | 0.14 | 0.67 | 0.65 | 94 | 1016.6 |
| 20260903081008 | 72 | 196 | 1.0 | 3.0 | 0.15 | 0.67 | 0.65 | 94 | 1016.3 |
| 20260903080509 | 72 | 128 | 1.0 | 3.0 | 0.16 | 0.67 | 0.65 | 94 | 1016.2 |
| 20260903080016 | 72 | 116 | 1.0 | 3.0 | 0.20 | 0.63 | 0.61 | 94 | 1016.1 |
| 20260903075508 | 72 | 85 | 1.0 | 3.0 | 0.52 | 0.63 | 0.61 | 94 | 1016.3 |
| 20260903075007 | 72 | 99 | 1.0 | 3.0 | 0.61 | 0.63 | 0.61 | 94 | 1016.5 |
| 20260903074507 | 72 | 231 | 2.0 | 6.0 | 0.60 | 0.62 | 0.60 | 94 | 1016.6 |
| 20260903074011 | 72 | 142 | 2.0 | 9.0 | 0.57 | 0.60 | 0.57 | 94 | 1016.6 |
| 20260903073507 | 72 | 113 | 3.0 | 9.0 | 0.55 | 0.56 | 0.55 | 94 | 1016.5 |
| 20260903073007 | 72 | 22 | 1.0 | 4.0 | 0.53 | 0.55 | 0.53 | 94 | 1017.1 |
| 20260903072506 | 72 | 316 | 0.0 | 8.0 | 0.51 | 0.53 | 0.51 | 94 | 1017.0 |
| 20260903072006 | 72 | 76 | 2.0 | 8.0 | 0.51 | 0.53 | 0.51 | 94 | 1017.0 |
| 20260903071506 | 72 | 31 | 0.0 | 4.0 | 0.51 | 0.53 | 0.51 | 94 | 1017.0 |
| 20260903071010 | 72 | 63 | 1.0 | 6.0 | 0.50 | 0.52 | 0.50 | 94 | 1016.7 |
| 20260903070505 | 72 | 51 | 1.0 | 10.0 | 0.48 | 0.50 | 0.48 | 94 | 1016.8 |
| 20260903070006 | 72 | 11 | 3.0 | 10.0 | 0.39 | 0.41 | 0.39 | 93 | 1017.0 |
| 20260903065505 | 72 | 334 | 3.0 | 10.0 | 0.06 | 0.08 | 0.06 | 94 | 1018.1 |
| 20260903065003 | 72 | 27 | 1.0 | 6.0 | 0.00 | 0.02 | 0.00 | 94 | 1017.8 |
| 20260903064502 | 72 | 348 | 0.0 | 1.0 | 0.00 | 0.02 | 0.00 | 94 | 1016.5 |
| 20260903064002 | 72 | 27 | 0.0 | 1.0 | 0.00 | 0.02 | 0.00 | 94 | 1016.0 |
| 20260903063502 | 72 | 27 | 0.0 | 2.0 | 0.00 | 0.02 | 0.00 | 94 | 1016.1 |
| 20260903063001 | 72 | 336 | 0.0 | 2.0 | 0.00 | 0.02 | 0.00 | 94 | 1016.2 |
| 20260903062501 | 72 | 67 | 0.0 | 1.0 | 0.00 | 0.02 | 0.00 | 94 | 1015.9 |
| 20260903062001 | 72 | 67 | 0.0 | 1.0 | 0.00 | 0.02 | 0.00 | 94 | 1015.9 |
| 20260903061600 | 72 | 67 | 0.0 | 1.0 | 0.00 | 0.02 | 0.00 | 94 | 1016.1 |
| 20260903061059 | 72 | 67 | 0.0 | 1.0 | 0.00 | 0.02 | 0.00 | 93 | 1016.2 |
| 20260903060559 | 72 | 67 | 0.0 | 2.0 | 0.00 | 0.02 | 0.00 | 93 | 1016.3 |
| 20260903060100 | 72 | 69 | 0.0 | 1.0 | 0.00 | 0.02 | 0.00 | 93 | 1016.2 |
| 20260903055601 | 72 | 69 | 0.0 | 1.0 | 0.00 | 0.02 | 0.00 | 93 | 1016.2 |
| 20260903055058 | 72 | 69 | 0.0 | 1.0 | 0.00 | 0.02 | 0.00 | 93 | 1016.1 |
| 20260903054609 | 72 | 69 | 0.0 | 1.0 | 0.00 | 0.02 | 0.00 | 93 | 1016.1 |
| 20260903054057 | 72 | 69 | 0.0 | 1.0 | 0.00 | 0.02 | 0.00 | 93 | 1016.2 |
| 20260903053556 | 72 | 69 | 0.0 | 1.0 | 0.00 | 0.02 | 0.00 | 93 | 1016.3 |
| 20260903053105 | 72 | 69 | 0.0 | 0.0 | 0.00 | 0.02 | 0.00 | 93 | 1016.4 |
| 20260903052555 | 72 | 69 | 0.0 | 1.0 | 0.00 | 0.02 | 0.00 | 93 | 1016.5 |
| 20260903052057 | 72 | 69 | 0.0 | 1.0 | 0.00 | 0.02 | 0.00 | 93 | 1016.7 |
| 20260903051555 | 73 | 82 | 0.0 | 2.0 | 0.00 | 0.02 | 0.00 | 93 | 1016.6 |
| 20260903051055 | 73 | 82 | 0.0 | 2.0 | 0.00 | 0.02 | 0.00 | 93 | 1016.4 |
| 20260903050553 | 73 | 67 | 0.0 | 3.0 | 0.00 | 0.02 | 0.00 | 93 | 1016.5 |
| 20260903050052 | 73 | 37 | 0.0 | 3.0 | 0.00 | 0.02 | 0.00 | 93 | 1016.6 |
| 20260903045551 | 73 | 73 | 0.0 | 2.0 | 0.00 | 0.02 | 0.00 | 92 | 1016.8 |
| 20260903045050 | 73 | 64 | 0.0 | 1.0 | 0.00 | 0.02 | 0.00 | 92 | 1016.8 |
| 20260903044553 | 73 | 64 | 0.0 | 1.0 | 0.00 | 0.02 | 0.00 | 92 | 1017.0 |
| 20260903044049 | 73 | 101 | 0.0 | 1.0 | 0.00 | 0.02 | 0.00 | 92 | 1016.9 |
| 20260903043548 | 73 | 101 | 0.0 | 1.0 | 0.00 | 0.02 | 0.00 | 92 | 1016.9 |
| 20260903043046 | 73 | 101 | 0.0 | 1.0 | 0.00 | 0.02 | 0.00 | 92 | 1016.9 |
| 20260903042546 | 73 | 101 | 0.0 | 1.0 | 0.00 | 0.02 | 0.00 | 92 | 1016.8 |
| 20260903042043 | 73 | 101 | 0.0 | 2.0 | 0.00 | 0.02 | 0.00 | 92 | 1016.9 |
| 20260903041554 | 73 | 101 | 0.0 | 2.0 | 0.00 | 0.02 | 0.00 | 92 | 1016.9 |
| 20260903041040 | 73 | 49 | 0.0 | 2.0 | 0.00 | 0.02 | 0.00 | 92 | 1017.0 |
| 20260903040539 | 73 | 50 | 0.0 | 2.0 | 0.00 | 0.02 | 0.00 | 92 | 1017.1 |
| 20260903040046 | 73 | 80 | 0.0 | 2.0 | 0.00 | 0.02 | 0.00 | 92 | 1017.2 |
| 20260903035542 | 74 | 37 | 0.0 | 3.0 | 0.00 | 0.02 | 0.02 | 92 | 1017.5 |
| 20260903035038 | 74 | 37 | 0.0 | 3.0 | 0.00 | 0.02 | 0.02 | 92 | 1017.4 |
| 20260903034537 | 73 | 24 | 0.0 | 1.0 | 0.00 | 0.02 | 0.02 | 92 | 1017.4 |
| 20260903034037 | 73 | 105 | 0.0 | 1.0 | 0.00 | 0.02 | 0.02 | 92 | 1017.3 |
| 20260903033536 | 73 | 105 | 0.0 | 1.0 | 0.00 | 0.02 | 0.02 | 92 | 1017.4 |
| 20260903033036 | 74 | 105 | 0.0 | 1.0 | 0.00 | 0.02 | 0.02 | 92 | 1017.4 |
| 20260903032536 | 73 | 105 | 0.0 | 0.0 | 0.00 | 0.02 | 0.02 | 92 | 1017.4 |
| 20260903032038 | 73 | 105 | 0.0 | 0.0 | 0.00 | 0.02 | 0.02 | 92 | 1017.3 |
| 20260903031535 | 73 | 105 | 0.0 | 0.0 | 0.00 | 0.02 | 0.02 | 92 | 1017.1 |
| 20260903031036 | 73 | 105 | 0.0 | 1.0 | 0.00 | 0.02 | 0.02 | 92 | 1017.2 |
| 20260903030538 | 73 | 105 | 0.0 | 1.0 | 0.00 | 0.02 | 0.02 | 92 | 1017.1 |
| 20260903030041 | 73 | 105 | 0.0 | 1.0 | 0.00 | 0.02 | 0.02 | 92 | 1017.1 |
| 20260903025536 | 73 | 105 | 0.0 | 2.0 | 0.00 | 0.12 | 0.02 | 92 | 1017.1 |
| 20260903025035 | 73 | 105 | 1.0 | 3.0 | 0.00 | 0.12 | 0.02 | 92 | 1017.0 |
| 20260903024535 | 73 | 49 | 1.0 | 3.0 | 0.00 | 0.12 | 0.02 | 92 | 1017.0 |
| 20260903024134 | 73 | 85 | 0.0 | 2.0 | 0.00 | 0.12 | 0.02 | 92 | 1017.1 |
| 20260903023534 | 73 | 80 | 0.0 | 4.0 | 0.00 | 0.12 | 0.02 | 92 | 1017.0 |
| 20260903023036 | 73 | 97 | 0.0 | 4.0 | 0.00 | 0.12 | 0.02 | 92 | 1017.1 |
| 20260903022533 | 73 | 69 | 0.0 | 2.0 | 0.00 | 0.12 | 0.02 | 92 | 1017.2 |
| 20260903022033 | 73 | 55 | 0.0 | 2.0 | 0.00 | 0.12 | 0.02 | 92 | 1017.1 |
| 20260903021534 | 73 | 51 | 0.0 | 2.0 | 0.00 | 0.12 | 0.02 | 92 | 1017.2 |
| 20260903021034 | 74 | 77 | 0.0 | 3.0 | 0.00 | 0.12 | 0.02 | 91 | 1017.3 |
| 20260903020533 | 73 | 66 | 0.0 | 3.0 | 0.00 | 0.12 | 0.02 | 91 | 1017.2 |
| 20260903020033 | 74 | 86 | 0.0 | 2.0 | 0.00 | 0.12 | 0.02 | 91 | 1017.1 |
| 20260903015535 | 74 | 70 | 0.0 | 2.0 | 0.00 | 0.12 | 0.02 | 91 | 1017.2 |
| 20260903015033 | 73 | 73 | 0.0 | 3.0 | 0.00 | 0.12 | 0.02 | 91 | 1017.4 |
| 20260903014532 | 74 | 42 | 0.0 | 4.0 | 0.00 | 0.12 | 0.02 | 91 | 1017.2 |
| 20260903014036 | 74 | 74 | 0.0 | 3.0 | 0.00 | 0.12 | 0.02 | 91 | 1017.2 |
| 20260903013533 | 74 | 41 | 0.0 | 1.0 | 0.00 | 0.12 | 0.02 | 91 | 1017.2 |
| 20260903013034 | 74 | 41 | 0.0 | 2.0 | 0.00 | 0.12 | 0.02 | 91 | 1017.2 |
| 20260903012533 | 74 | 57 | 1.0 | 2.0 | 0.00 | 0.12 | 0.02 | 91 | 1017.2 |
| 20260903012032 | 74 | 113 | 0.0 | 2.0 | 0.00 | 0.12 | 0.02 | 91 | 1017.2 |
| 20260903011532 | 74 | 113 | 0.0 | 3.0 | 0.00 | 0.12 | 0.02 | 91 | 1017.2 |
| 20260903011031 | 74 | 118 | 1.0 | 2.0 | 0.00 | 0.12 | 0.02 | 91 | 1017.4 |
| 20260903010531 | 74 | 77 | 0.0 | 2.0 | 0.00 | 0.12 | 0.02 | 91 | 1017.5 |
| 20260903010035 | 74 | 59 | 0.0 | 2.0 | 0.00 | 0.12 | 0.02 | 91 | 1017.5 |
| 20260903005532 | 74 | 43 | 0.0 | 1.0 | 0.00 | 0.12 | 0.02 | 91 | 1017.5 |
| 20260903005035 | 74 | 43 | 0.0 | 1.0 | 0.00 | 0.12 | 0.02 | 91 | 1017.6 |
| 20260903004531 | 74 | 116 | 0.0 | 1.0 | 0.00 | 0.12 | 0.02 | 91 | 1017.6 |
| 20260903004032 | 74 | 116 | 0.0 | 1.0 | 0.00 | 0.12 | 0.02 | 91 | 1017.4 |
| 20260903003531 | 74 | 116 | 0.0 | 1.0 | 0.00 | 0.12 | 0.02 | 91 | 1017.4 |
| 20260903003030 | 74 | 116 | 0.0 | 1.0 | 0.00 | 0.12 | 0.02 | 91 | 1017.2 |
| 20260903002530 | 74 | 116 | 0.0 | 3.0 | 0.00 | 0.12 | 0.02 | 91 | 1017.1 |
| 20260903002032 | 74 | 116 | 0.0 | 3.0 | 0.00 | 0.12 | 0.02 | 91 | 1017.2 |
| 20260903001551 | 74 | 119 | 0.0 | 2.0 | 0.00 | 0.12 | 0.02 | 90 | 1017.1 |
| 20260903001029 | 74 | 129 | 0.0 | 2.0 | 0.00 | 0.12 | 0.02 | 90 | 1017.1 |
| 20260903000529 | 74 | 90 | 0.0 | 4.0 | 0.00 | 0.12 | 0.02 | 90 | 1017.0 |
| 20260903000029 | 74 | 74 | 1.0 | 4.0 | 0.00 | 0.12 | 0.02 | 90 | 1017.2 |
| 20260902235532 | 74 | 68 | 0.0 | 3.0 | 0.00 | 0.12 | 0.02 | 90 | 1017.4 |
| 20260902235028 | 74 | 78 | 0.0 | 2.0 | 0.00 | 0.12 | 0.02 | 90 | 1017.2 |
| 20260902234531 | 74 | 68 | 0.0 | 3.0 | 0.00 | 0.12 | 0.02 | 90 | 1017.2 |
| 20260902234028 | 74 | 87 | 0.0 | 3.0 | 0.00 | 0.12 | 0.02 | 90 | 1017.2 |
| 20260902233528 | 74 | 78 | 0.0 | 2.0 | 0.00 | 0.12 | 0.02 | 90 | 1017.1 |
| 20260902233028 | 74 | 78 | 0.0 | 2.0 | 0.00 | 0.12 | 0.02 | 90 | 1017.2 |
| 20260902232527 | 74 | 78 | 0.0 | 3.0 | 0.00 | 0.12 | 0.02 | 90 | 1017.1 |
| 20260902232027 | 74 | 13 | 0.0 | 3.0 | 0.00 | 0.12 | 0.02 | 90 | 1017.0 |
| 20260902231530 | 74 | 74 | 0.0 | 2.0 | 0.00 | 0.12 | 0.02 | 90 | 1017.0 |
| 20260902231027 | 74 | 88 | 0.0 | 2.0 | 0.00 | 0.12 | 0.02 | 89 | 1017.1 |
| 20260902230528 | 74 | 113 | 0.0 | 4.0 | 0.00 | 0.12 | 0.02 | 89 | 1017.1 |
| 20260902230027 | 74 | 43 | 1.0 | 4.0 | 0.00 | 0.12 | 0.02 | 89 | 1017.1 |
| 20260902225528 | 74 | 98 | 1.0 | 3.0 | 0.00 | 0.12 | 0.02 | 89 | 1017.2 |
| 20260902225026 | 74 | 37 | 0.0 | 5.0 | 0.00 | 0.12 | 0.02 | 90 | 1017.1 |
| 20260902224525 | 74 | 87 | 1.0 | 2.0 | 0.00 | 0.12 | 0.02 | 90 | 1017.2 |
| 20260902224027 | 74 | 32 | 0.0 | 4.0 | 0.00 | 0.12 | 0.02 | 89 | 1017.3 |
| 20260902223525 | 74 | 103 | 2.0 | 4.0 | 0.00 | 0.12 | 0.02 | 89 | 1017.1 |
| 20260902223028 | 74 | 38 | 1.0 | 6.0 | 0.00 | 0.12 | 0.02 | 89 | 1017.2 |
| 20260902222525 | 74 | 66 | 2.0 | 6.0 | 0.00 | 0.12 | 0.02 | 89 | 1017.2 |
| 20260902222029 | 74 | 134 | 1.0 | 3.0 | 0.00 | 0.12 | 0.02 | 90 | 1017.2 |
| 20260902221524 | 74 | 114 | 0.0 | 3.0 | 0.00 | 0.12 | 0.02 | 90 | 1017.4 |
| 20260902221024 | 74 | 109 | 0.0 | 4.0 | 0.00 | 0.12 | 0.02 | 90 | 1017.4 |
| 20260902220524 | 74 | 113 | 2.0 | 6.0 | 0.00 | 0.12 | 0.02 | 90 | 1017.3 |
| 20260902220024 | 74 | 89 | 1.0 | 7.0 | 0.00 | 0.12 | 0.02 | 90 | 1017.3 |
| 20260902215524 | 74 | 114 | 2.0 | 5.0 | 0.00 | 0.12 | 0.02 | 90 | 1017.5 |
| 20260902215024 | 74 | 97 | 1.0 | 4.0 | 0.00 | 0.12 | 0.02 | 90 | 1017.6 |
| 20260902214522 | 74 | 85 | 1.0 | 4.0 | 0.00 | 0.12 | 0.02 | 90 | 1017.6 |
| 20260902214023 | 74 | 91 | 1.0 | 4.0 | 0.00 | 0.12 | 0.02 | 90 | 1017.7 |
| 20260902213522 | 74 | 108 | 1.0 | 3.0 | 0.00 | 0.12 | 0.02 | 90 | 1017.6 |
| 20260902213022 | 74 | 103 | 1.0 | 3.0 | 0.00 | 0.12 | 0.02 | 90 | 1017.7 |
| 20260902212522 | 74 | 59 | 1.0 | 3.0 | 0.00 | 0.12 | 0.02 | 90 | 1017.6 |
| 20260902212024 | 74 | 60 | 0.0 | 3.0 | 0.00 | 0.12 | 0.02 | 90 | 1017.6 |
| 20260902211521 | 74 | 61 | 1.0 | 3.0 | 0.00 | 0.12 | 0.02 | 90 | 1017.6 |
| 20260902211021 | 74 | 42 | 0.0 | 5.0 | 0.00 | 0.12 | 0.02 | 90 | 1017.7 |
| 20260902210521 | 74 | 116 | 1.0 | 7.0 | 0.00 | 0.12 | 0.02 | 90 | 1017.7 |
| 20260902210020 | 74 | 59 | 1.0 | 7.0 | 0.00 | 0.12 | 0.02 | 90 | 1017.6 |
| 20260902205520 | 74 | 88 | 1.0 | 8.0 | 0.00 | 0.12 | 0.02 | 90 | 1017.5 |
| 20260902205024 | 74 | 76 | 2.0 | 8.0 | 0.01 | 0.12 | 0.02 | 90 | 1017.4 |
| 20260902204522 | 74 | 104 | 4.0 | 8.0 | 0.01 | 0.12 | 0.02 | 90 | 1017.4 |
| 20260902204019 | 74 | 63 | 0.0 | 7.0 | 0.01 | 0.12 | 0.02 | 90 | 1017.5 |
| 20260902203519 | 74 | 107 | 2.0 | 7.0 | 0.01 | 0.12 | 0.02 | 90 | 1017.3 |
| 20260902203019 | 74 | 130 | 3.0 | 8.0 | 0.02 | 0.12 | 0.02 | 90 | 1016.9 |
| 20260902202519 | 74 | 137 | 1.0 | 9.0 | 0.02 | 0.12 | 0.02 | 91 | 1016.8 |
| 20260902202022 | 74 | 26 | 2.0 | 9.0 | 0.02 | 0.12 | 0.02 | 90 | 1016.9 |
| 20260902201518 | 74 | 125 | 2.0 | 9.0 | 0.02 | 0.12 | 0.02 | 90 | 1017.0 |
| 20260902201020 | 74 | 96 | 2.0 | 9.0 | 0.02 | 0.12 | 0.02 | 90 | 1017.0 |
| 20260902200517 | 74 | 67 | 1.0 | 8.0 | 0.02 | 0.12 | 0.02 | 90 | 1017.0 |
| 20260902200019 | 74 | 90 | 1.0 | 8.0 | 0.02 | 0.12 | 0.02 | 89 | 1017.0 |
| 20260902195517 | 74 | 115 | 2.0 | 7.0 | 0.02 | 0.12 | 0.02 | 88 | 1016.7 |
| 20260902195016 | 75 | 128 | 3.0 | 7.0 | 0.01 | 0.11 | 0.01 | 88 | 1016.7 |
| 20260902194515 | 75 | 119 | 1.0 | 7.0 | 0.01 | 0.11 | 0.01 | 87 | 1017.0 |
| 20260902194016 | 75 | 115 | 2.0 | 6.0 | 0.01 | 0.11 | 0.01 | 86 | 1017.1 |
| 20260902193516 | 76 | 166 | 2.0 | 6.0 | 0.01 | 0.11 | 0.01 | 86 | 1017.1 |
| 20260902193016 | 76 | 127 | 3.0 | 6.0 | 0.00 | 0.10 | 0.00 | 84 | 1017.2 |
| 20260902192515 | 76 | 223 | 3.0 | 7.0 | 0.00 | 0.10 | 0.00 | 82 | 1017.2 |
| 20260902192014 | 76 | 224 | 2.0 | 7.0 | 0.00 | 0.10 | 0.00 | 82 | 1017.6 |
| 20260902191519 | 76 | 144 | 1.0 | 8.0 | 0.00 | 0.10 | 0.00 | 82 | 1017.8 |
| 20260902191014 | 77 | 106 | 2.0 | 8.0 | 0.00 | 0.10 | 0.00 | 81 | 1018.1 |
| 20260902190514 | 77 | 96 | 3.0 | 6.0 | 0.00 | 0.10 | 0.00 | 81 | 1018.3 |
| 20260902190019 | 77 | 84 | 0.0 | 9.0 | 0.00 | 0.10 | 0.00 | 81 | 1018.5 |
| 20260902185515 | 77 | 132 | 2.0 | 9.0 | 0.00 | 0.10 | 0.00 | 80 | 1018.4 |
| 20260902185015 | 78 | 94 | 3.0 | 6.0 | 0.00 | 0.10 | 0.00 | 80 | 1018.5 |
| 20260902184512 | 78 | 50 | 1.0 | 6.0 | 0.00 | 0.10 | 0.00 | 79 | 1018.7 |
| 20260902184015 | 78 | 124 | 2.0 | 7.0 | 0.00 | 0.10 | 0.00 | 79 | 1018.7 |
| 20260902183512 | 79 | 107 | 2.0 | 6.0 | 0.00 | 0.10 | 0.00 | 78 | 1018.8 |
| 20260902183013 | 79 | 5 | 1.0 | 7.0 | 0.00 | 0.10 | 0.00 | 77 | 1018.9 |
| 20260902182515 | 79 | 130 | 3.0 | 8.0 | 0.00 | 0.10 | 0.00 | 76 | 1018.8 |
| 20260902182010 | 80 | 70 | 3.0 | 8.0 | 0.00 | 0.10 | 0.00 | 76 | 1018.9 |
| 20260902181512 | 80 | 150 | 3.0 | 8.0 | 0.00 | 0.10 | 0.00 | 74 | 1018.9 |
| 20260902181009 | 80 | 96 | 2.0 | 7.0 | 0.00 | 0.10 | 0.00 | 75 | 1018.9 |
| 20260902180509 | 80 | 109 | 2.0 | 9.0 | 0.00 | 0.10 | 0.00 | 75 | 1018.9 |
| 20260902180014 | 81 | 153 | 2.0 | 8.0 | 0.00 | 0.10 | 0.00 | 71 | 1018.9 |
| 20260902175514 | 81 | 141 | 1.0 | 8.0 | 0.00 | 0.10 | 0.00 | 75 | 1018.9 |
| 20260902175008 | 81 | 9 | 2.0 | 10.0 | 0.00 | 0.10 | 0.00 | 75 | 1018.9 |
| 20260902174506 | 80 | 122 | 4.0 | 10.0 | 0.00 | 0.10 | 0.00 | 73 | 1019.0 |
| 20260902174007 | 80 | 87 | 1.0 | 9.0 | 0.00 | 0.10 | 0.00 | 74 | 1019.0 |
| 20260902173507 | 80 | 69 | 3.0 | 9.0 | 0.00 | 0.10 | 0.00 | 73 | 1018.9 |
| 20260902173008 | 80 | 98 | 3.0 | 8.0 | 0.00 | 0.10 | 0.00 | 74 | 1018.9 |
| 20260902172508 | 80 | 9 | 2.0 | 8.0 | 0.00 | 0.10 | 0.00 | 74 | 1018.8 |
| 20260902172005 | 80 | 53 | 4.0 | 11.0 | 0.00 | 0.10 | 0.00 | 73 | 1018.6 |
| 20260902171505 | 80 | 113 | 4.0 | 11.0 | 0.00 | 0.10 | 0.00 | 72 | 1018.5 |
| 20260902171004 | 80 | 147 | 3.0 | 9.0 | 0.00 | 0.10 | 0.00 | 73 | 1018.5 |
| 20260902170504 | 81 | 141 | 2.0 | 9.0 | 0.00 | 0.10 | 0.00 | 74 | 1018.5 |
| 20260902170003 | 80 | 38 | 3.0 | 11.0 | 0.00 | 0.10 | 0.00 | 74 | 1018.4 |
| 20260902165503 | 80 | 140 | 1.0 | 11.0 | 0.00 | 0.10 | 0.00 | 75 | 1018.4 |
| 20260902165003 | 80 | 302 | 4.0 | 11.0 | 0.00 | 0.10 | 0.00 | 75 | 1018.4 |
| 20260902164503 | 80 | 53 | 2.0 | 9.0 | 0.00 | 0.10 | 0.00 | 75 | 1018.5 |
| 20260902164002 | 80 | 126 | 4.0 | 12.0 | 0.00 | 0.10 | 0.00 | 75 | 1018.4 |
| 20260902163501 | 80 | 79 | 4.0 | 12.0 | 0.00 | 0.10 | 0.00 | 75 | 1018.3 |
| 20260902163101 | 80 | 90 | 3.0 | 11.0 | 0.00 | 0.10 | 0.00 | 75 | 1018.2 |
| 20260902162603 | 80 | 84 | 4.0 | 11.0 | 0.00 | 0.10 | 0.00 | 75 | 1018.2 |
| 20260902162102 | 80 | 74 | 3.0 | 11.0 | 0.00 | 0.10 | 0.00 | 75 | 1018.3 |
| 20260902161602 | 80 | 157 | 3.0 | 11.0 | 0.00 | 0.10 | 0.00 | 76 | 1018.3 |
| 20260902161059 | 80 | 119 | 4.0 | 9.0 | 0.00 | 0.10 | 0.00 | 74 | 1018.4 |
| 20260902160559 | 80 | 93 | 2.0 | 12.0 | 0.00 | 0.10 | 0.00 | 75 | 1018.3 |
| 20260902160057 | 79 | 116 | 1.0 | 12.0 | 0.00 | 0.10 | 0.00 | 77 | 1018.3 |
| 20260902155556 | 79 | 112 | 5.0 | 11.0 | 0.00 | 0.10 | 0.00 | 76 | 1018.4 |
| 20260902155056 | 79 | 82 | 5.0 | 11.0 | 0.00 | 0.10 | 0.00 | 76 | 1018.4 |
| 20260902154555 | 79 | 85 | 6.0 | 11.0 | 0.00 | 0.10 | 0.00 | 76 | 1018.3 |
| 20260902154054 | 79 | 112 | 7.0 | 11.0 | 0.00 | 0.10 | 0.00 | 76 | 1018.5 |
| 20260902153553 | 79 | 86 | 4.0 | 12.0 | 0.00 | 0.10 | 0.00 | 78 | 1018.5 |
| 20260902153054 | 79 | 90 | 5.0 | 12.0 | 0.00 | 0.10 | 0.00 | 78 | 1018.5 |
| 20260902152551 | 78 | 67 | 2.0 | 11.0 | 0.00 | 0.10 | 0.00 | 81 | 1018.5 |
| 20260902152058 | 78 | 121 | 4.0 | 12.0 | 0.00 | 0.10 | 0.00 | 81 | 1018.6 |
| 20260902151552 | 77 | 159 | 4.0 | 12.0 | 0.00 | 0.10 | 0.00 | 81 | 1018.8 |
| 20260902151052 | 77 | 124 | 2.0 | 9.0 | 0.00 | 0.10 | 0.00 | 82 | 1018.9 |
| 20260902150553 | 78 | 158 | 3.0 | 9.0 | 0.00 | 0.10 | 0.00 | 81 | 1018.9 |
| 20260902150051 | 78 | 98 | 1.0 | 6.0 | 0.00 | 0.10 | 0.00 | 83 | 1018.9 |
| 20260902145552 | 78 | 77 | 2.0 | 8.0 | 0.00 | 0.10 | 0.00 | 83 | 1018.9 |
| 20260902145050 | 78 | 69 | 3.0 | 11.0 | 0.00 | 0.10 | 0.00 | 82 | 1019.0 |
| 20260902144551 | 78 | 56 | 4.0 | 11.0 | 0.00 | 0.10 | 0.00 | 81 | 1018.9 |
| 20260902144049 | 79 | 134 | 6.0 | 11.0 | 0.00 | 0.10 | 0.00 | 79 | 1018.8 |
| 20260902143548 | 79 | 125 | 3.0 | 9.0 | 0.00 | 0.10 | 0.00 | 80 | 1018.8 |
| 20260902143047 | 79 | 97 | 1.0 | 9.0 | 0.00 | 0.10 | 0.00 | 82 | 1018.7 |
| 20260902142547 | 79 | 112 | 3.0 | 10.0 | 0.00 | 0.10 | 0.00 | 81 | 1018.6 |
| 20260902142047 | 79 | 117 | 2.0 | 8.0 | 0.00 | 0.10 | 0.00 | 82 | 1018.6 |
| 20260902141551 | 79 | 96 | 2.0 | 12.0 | 0.00 | 0.10 | 0.00 | 81 | 1018.6 |
| 20260902141044 | 78 | 122 | 3.0 | 12.0 | 0.00 | 0.10 | 0.00 | 83 | 1018.6 |
| 20260902140543 | 77 | 79 | 3.0 | 9.0 | 0.00 | 0.10 | 0.00 | 83 | 1018.6 |
| 20260902140042 | 77 | 132 | 1.0 | 10.0 | 0.00 | 0.10 | 0.00 | 85 | 1018.5 |
| 20260902135643 | 77 | 117 | 3.0 | 10.0 | 0.00 | 0.10 | 0.00 | 85 | 1018.5 |
| 20260902135042 | 77 | 116 | 3.0 | 13.0 | 0.00 | 0.10 | 0.00 | 85 | 1018.4 |
| 20260902134544 | 76 | 118 | 5.0 | 13.0 | 0.00 | 0.10 | 0.00 | 85 | 1018.4 |
| 20260902134039 | 76 | 136 | 4.0 | 11.0 | 0.00 | 0.10 | 0.00 | 86 | 1018.2 |
| 20260902133539 | 76 | 88 | 2.0 | 8.0 | 0.00 | 0.10 | 0.00 | 86 | 1018.2 |
| 20260902133040 | 76 | 117 | 2.0 | 8.0 | 0.00 | 0.10 | 0.00 | 85 | 1018.1 |
| 20260902132537 | 77 | 119 | 1.0 | 8.0 | 0.00 | 0.10 | 0.00 | 85 | 1018.0 |
| 20260902132037 | 77 | 51 | 2.0 | 8.0 | 0.00 | 0.10 | 0.00 | 85 | 1018.0 |
| 20260902131537 | 77 | 98 | 3.0 | 9.0 | 0.00 | 0.10 | 0.00 | 85 | 1017.8 |
| 20260902131039 | 77 | 155 | 2.0 | 9.0 | 0.00 | 0.10 | 0.00 | 86 | 1017.8 |
| 20260902130536 | 76 | 94 | 1.0 | 11.0 | 0.00 | 0.10 | 0.00 | 88 | 1017.8 |
| 20260902130037 | 76 | 126 | 4.0 | 8.0 | 0.00 | 0.10 | 0.00 | 88 | 1017.8 |
| 20260902125533 | 76 | 82 | 0.0 | 7.0 | 0.00 | 0.10 | 0.00 | 90 | 1017.8 |
| 20260902125032 | 75 | 76 | 1.0 | 8.0 | 0.00 | 0.10 | 0.00 | 90 | 1017.8 |
| 20260902124531 | 75 | 113 | 2.0 | 8.0 | 0.00 | 0.10 | 0.00 | 91 | 1017.7 |
| 20260902124030 | 75 | 73 | 2.0 | 7.0 | 0.00 | 0.10 | 0.00 | 91 | 1017.8 |
| 20260902123529 | 74 | 98 | 1.0 | 8.0 | 0.00 | 0.10 | 0.00 | 92 | 1017.8 |
| 20260902123028 | 74 | 134 | 2.0 | 8.0 | 0.00 | 0.10 | 0.00 | 92 | 1017.8 |
| 20260902122528 | 74 | 102 | 0.0 | 0.0 | 0.00 | 0.10 | 0.00 | 93 | 1017.9 |
| 20260902122026 | 74 | 120 | 0.0 | 4.0 | 0.00 | 0.10 | 0.00 | 93 | 1017.8 |
| 20260902121524 | 74 | 61 | 0.0 | 6.0 | 0.00 | 0.10 | 0.00 | 94 | 1017.7 |
| 20260902121023 | 74 | 67 | 2.0 | 6.0 | 0.00 | 0.10 | 0.00 | 94 | 1017.8 |
| 20260902120524 | 74 | 136 | 1.0 | 3.0 | 0.00 | 0.10 | 0.00 | 94 | 1017.9 |
| 20260902120021 | 73 | 80 | 0.0 | 6.0 | 0.00 | 0.10 | 0.00 | 95 | 1017.9 |
| 20260902115525 | 73 | 127 | 0.0 | 4.0 | 0.00 | 0.10 | 0.00 | 94 | 1017.9 |
| 20260902115018 | 73 | 73 | 0.0 | 4.0 | 0.00 | 0.10 | 0.00 | 94 | 1017.9 |
| 20260902114524 | 73 | 5 | 0.0 | 2.0 | 0.00 | 0.10 | 0.00 | 94 | 1017.9 |
| 20260902114019 | 73 | 22 | 0.0 | 3.0 | 0.00 | 0.10 | 0.00 | 94 | 1017.8 |
| 20260902113514 | 73 | 342 | 0.0 | 3.0 | 0.00 | 0.10 | 0.00 | 94 | 1017.7 |
| 20260902113018 | 73 | 57 | 1.0 | 3.0 | 0.00 | 0.10 | 0.00 | 94 | 1017.6 |
| 20260902112513 | 73 | 47 | 0.0 | 3.0 | 0.00 | 0.10 | 0.00 | 94 | 1017.7 |
| 20260902112012 | 72 | 59 | 1.0 | 3.0 | 0.00 | 0.10 | 0.00 | 94 | 1017.6 |
| 20260902111511 | 72 | 13 | 0.0 | 5.0 | 0.00 | 0.10 | 0.00 | 94 | 1017.5 |
| 20260902111011 | 72 | 11 | 1.0 | 5.0 | 0.00 | 0.10 | 0.00 | 94 | 1017.5 |
| 20260902110513 | 72 | 59 | 1.0 | 3.0 | 0.00 | 0.10 | 0.00 | 94 | 1017.4 |
| 20260902110009 | 72 | 76 | 1.0 | 3.0 | 0.00 | 0.10 | 0.00 | 94 | 1017.3 |
| 20260902105507 | 72 | 32 | 0.0 | 3.0 | 0.00 | 0.10 | 0.00 | 94 | 1017.3 |
| 20260902105010 | 72 | 58 | 0.0 | 5.0 | 0.00 | 0.10 | 0.00 | 94 | 1017.2 |
| 20260902104505 | 72 | 317 | 1.0 | 6.0 | 0.00 | 0.10 | 0.00 | 94 | 1017.2 |
| 20260902104003 | 72 | 46 | 0.0 | 4.0 | 0.00 | 0.10 | 0.00 | 94 | 1017.1 |
| 20260902103503 | 72 | 113 | 1.0 | 4.0 | 0.00 | 0.10 | 0.00 | 94 | 1017.1 |
| 20260902103002 | 72 | 355 | 0.0 | 8.0 | 0.00 | 0.10 | 0.00 | 94 | 1017.0 |
| 20260902102502 | 72 | 56 | 1.0 | 8.0 | 0.00 | 0.10 | 0.00 | 94 | 1016.9 |
| 20260902102002 | 72 | 53 | 0.0 | 4.0 | 0.00 | 0.10 | 0.00 | 94 | 1016.9 |
| 20260902101501 | 72 | 43 | 1.0 | 4.0 | 0.00 | 0.10 | 0.00 | 94 | 1016.8 |
| 20260902101001 | 72 | 346 | 0.0 | 5.0 | 0.00 | 0.10 | 0.00 | 94 | 1016.9 |